This demonstration page uses our WeatherBlox Daily Observations layout. Learn more.

Left ArrowRight Arrow

39.12711, -84.51439

Hourly Observations for March 22, 2021

Temp ( °F °C ) Dew Point ( °F °C ) Humidity (%) Winds ( mph kmh ) Pressure ( in mb ) Visibility ( mi km ) Precip ( " mm )
12:53 am 00:53 Clear 42 5.6 35 1.7 76 76 Calm 30.25 1024 10 16.0934 0 0
1:53 am 01:53 Clear 40 4.4 35 1.7 83 83 Calm 30.25 1025 10 16.0934 0 0
2:53 am 02:53 Clear 39 3.9 35 1.7 86 86 Calm 30.25 1024 10 16.0934 0 0
4:53 am 04:53 Mostly Clear 37 2.8 34 1.1 89 89 Calm 30.25 1024 10 16.0934 0 0
5:53 am 05:53 Clear 36 2.2 34 1.1 93 93 Calm 30.24 1024 10 16.0934 0 0
6:53 am 06:53 Clear 36 2.2 33 0.6 89 89 Calm 30.25 1024 10 16.0934 0 0
7:53 am 07:53 Sunny 36 2.2 34 1.1 93 93 Calm 30.27 1025 10 16.0934 0 0
8:53 am 08:53 Sunny 41 5 38 3.3 89 89 Calm 30.28 1025 10 16.0934 0 0
9:53 am 09:53 Sunny 49 9.4 40 4.4 71 71 Calm 30.27 1025 10 16.0934 0 0
10:53 am 10:53 Sunny 59 15 37 2.8 44 44 SSW 8 13 30.26 1025 10 16.0934 0 0
11:53 am 11:53 Sunny 64 17.8 39 3.9 40 40 S 6 9 30.24 1024 10 16.0934 0 0
12:53 pm 12:53 Sunny 67 19.4 42 5.6 41 41 S 7 11 30.21 1023 10 16.0934 0 0
1:53 pm 13:53 Mostly Cloudy 67 19.4 40 4.4 37 37 S 7 11 30.18 1022 10 16.0934 0 0
2:53 pm 14:53 Sunny 69 20.6 39 3.9 33 33 S 9 15 30.14 1021 10 16.0934 0 0
3:53 pm 15:53 Partly Cloudy 70 21.1 39 3.9 32 32 SSW 9 15 30.11 1020 10 16.0934 0 0
4:53 pm 16:53 Partly Cloudy 71 21.7 37 2.8 29 29 SSW 12 19 30.08 1019 10 16.0934 0 0
5:53 pm 17:53 Sunny 69 20.6 38 3.3 32 32 SSW 14 22 30.07 1018 10 16.0934 0 0
6:53 pm 18:53 Mostly Sunny 67 19.4 38 3.3 35 35 S 8 13 30.07 1018 10 16.0934 0 0
7:53 pm 19:53 Clear 63 17.2 36 2.2 37 37 S 3 6 30.06 1018 10 16.0934 0 0
8:53 pm 20:53 Clear 56 13.3 39 3.9 53 53 Calm 30.07 1018 10 16.0934 0 0
9:53 pm 21:53 Clear 50 10 40 4.4 68 68 Calm 30.07 1018 10 16.0934 0 0
10:53 pm 22:53 Clear 46 7.8 39 3.9 77 77 ENE 3 6 30.08 1019 10 16.0934 0 0
11:53 pm 23:53 Clear 44 6.7 38 3.3 79 79 NE 3 6 30.08 1019 10 16.0934 0 0

Powered by AerisWeather